Location: Beau Repaire
(50.6144°N, 4.0551°E)
Time: 15:50:46
(UTC+00:00)

Meteor 1-11 Rocket - Pass Details

Date: 15 May 2026
Orbit: 829 x 915 km, 81.2° (Epoch: 10 June)

Event Time Altitude Azimuth Distance (km) Brightness Sun altitude
Rises 22:59:53 0° 347° (NNW) 3,459 8.5 -19.8°
Reaches altitude 10° 23:02:21 10° 349° (NNW) 2,505 7.4 -19.8°
Maximum altitude 23:08:02 84° 77° (ENE) 857 3.7 -20.0°
Enters shadow 23:10:15 39° 163° (SSE) 1,251 4.1 -20.0°
